x

Southwest Hawaii - 215nm Ssw Of Hilo, Hi (51002) Wave Buoy

11:50am - Mon 31st Aug 2015 All times are HST. -10 hours from GMT.

  • Sig Wave height 5.9ft
  • Swell Direction
  • Peak Period 12s
  • Average Period 9s
  • Wind
    4mph, 7mph gusts
  • Sea Temp 85°f
  • Air Temp 83°f
  • Sea Pressure 1012.1mb
  • Southwest Hawaii - 215nm Ssw Of Hilo, Hi
  • Southwest Hawaii - 215nm Ssw Of Hilo, Hi

More Historic Weather Station data

Upgrade to MSW Pro to gain access to the past 30 days of data for over 8000 Wavebouys and Weather Stations around the globe.

Join Pro

Comparision Forecast

View Surf forecast
   
Mon 08/31 11:50am 6ft 12s 9s 4 7 mph 1012.1mb 85f 83f
10:50am 6.5ft 13s 9s 4 7 mph 1012.4mb 84f 83f
9:50am 6ft 13s 9s 7
mph
1012.6mb 83f 82f
8:50am 5.5ft 12s 8s 7 9 mph 1012.5mb 83f 83f
7:50am 6ft 13s 8s 7 9 mph 1012.1mb 83f 83f
6:50am 5.5ft 11s 8s 9
mph
1011.5mb 83f 82f
5:50am 6ft 12s 9s 9 11 mph 1011.1mb 83f 82f
4:50am 5ft 11s 8s 9 11 mph 1010.8mb 83f 82f
3:50am 5.5ft 12s 8s 9 11 mph 1010.7mb 83f 82f
2:50am 5ft 14s 8s 9 11 mph 1010.6mb 83f 82f
1:50am 5.5ft 13s 8s 9 11 mph 1010.9mb 83f 82f
12:50am 5.5ft 14s 8s 9 11 mph 1011.4mb 83f 82f
Sun 08/30 11:50pm 5.5ft 14s 8s 9
mph
1011.9mb 83f 82f
10:50pm 6ft 12s 8s 11 13 mph 1012mb 83f 83f
9:50pm 5.5ft 14s 7s 11 13 mph 1011.8mb 83f 83f
8:50pm 5.5ft 13s 7s 13 16 mph 1011.1mb 83f 83f
7:50pm 6ft 12s 7s 11 13 mph 1010.2mb 84f 83f
6:50pm 6ft 13s 7s 11 16 mph 1009.7mb 84f 82f
5:50pm 6ft 13s 7s 11 16 mph 1009.2mb 84f 83f
4:50pm 6ft 12s 7s 11 16 mph 1009.2mb 84f 83f
3:50pm 6ft 12s 7s 13 16 mph 1009.3mb 84f 83f
2:50pm 6ft 13s 7s 11 13 mph 1009.9mb 84f 83f
1:50pm 6ft 13s 7s 11 13 mph 1010.3mb 84f 83f
12:50pm 7ft 13s 8s 11 13 mph 1011.1mb 84f 83f
11:50am 6.5ft 15s 7s 11 13 mph 1011.9mb 83f 83f
10:50am 7ft 14s 8s 13 16 mph 1012.2mb 83f 83f
9:50am 6.5ft 14s 7s 13 16 mph 1011.7mb 83f 83f
8:50am 6.5ft 11s 8s 13 18 mph 1011.3mb 83f 83f
7:50am 6ft 14s 7s 13 16 mph 1011mb 83f 83f
6:50am 7ft 14s 8s 13 16 mph 1010.6mb 83f 82f
5:50am 6ft 11s 7s 11 13 mph 1010mb 83f 82f
4:50am 6.5ft 14s 8s 11 13 mph 1009.8mb 83f 82f
3:50am 6ft 12s 8s 13 16 mph 1009.8mb 83f 82f
2:50am 6ft 14s 7s 11 16 mph 1009.9mb 83f 82f
1:50am 6ft 15s 7s 11 13 mph 1010.5mb 83f 82f
12:50am 6ft 15s 7s 13 16 mph 1011.2mb 83f 82f
Sat 08/29 11:50pm 6ft 15s 7s 16 18 mph 1011.6mb 83f 82f
10:50pm 5.5ft 15s 7s 16 18 mph 1011.6mb 83f 82f
9:50pm 5.5ft 15s 7s 16 20 mph 1011.6mb 83f 82f
8:50pm 6ft 15s 7s 13 16 mph 1011mb 83f 82f
7:50pm 5.5ft 15s 7s 13 16 mph 1010.5mb 83f 82f
6:50pm 5ft 15s 7s 13 16 mph 1009.8mb 83f 82f
5:50pm 5ft 14s 7s 13 16 mph 1009.1mb 84f 83f
4:50pm 5ft 16s 7s 13 16 mph 1008.9mb 84f 83f
3:50pm 5ft 15s 7s 13 16 mph 1009.3mb 83f 82f
2:50pm 5.5ft 12s 7s 13 16 mph 1009.8mb 83f 82f
1:50pm 5ft 13s 7s 13 16 mph 1010.2mb 83f 82f
12:50pm 6ft 15s 8s 13 16 mph 1011mb 83f 82f
11:50am 6ft 15s 7s 13 16 mph 1011.5mb 83f 82f
10:50am 5.5ft 15s 7s 13 16 mph 1011.8mb 83f 82f
9:50am 5.5ft 15s 7s 13 16 mph 1011.7mb 83f 82f
8:50am 5.5ft 15s 7s 13 18 mph 1011.4mb 83f 82f
7:50am 5ft 15s 7s 13 18 mph 1010.8mb 83f 82f
6:50am 6ft 15s 8s 16 20 mph 1010.1mb 83f 82f
5:50am 5.5ft 15s 7s 13 16 mph 1009.8mb 83f 82f
4:50am 5.5ft 16s 7s 13 16 mph 1009.9mb 83f 82f
3:50am 6ft 16s 7s 13 16 mph 1009.8mb 83f 82f
2:50am 5.5ft 15s 7s 11 13 mph 1010.4mb 83f 82f
1:50am 5.5ft 14s 7s 13 16 mph 1010.8mb 83f 82f
12:50am 5.5ft 14s 7s 16 18 mph 1011.3mb 83f 82f
Fri 08/28 11:50pm 5.5ft 14s 7s 18 20 mph 1011.6mb 83f 82f
10:50pm 5.5ft 14s 7s 16 20 mph 1011.9mb 83f 82f
9:50pm 6ft 14s 7s 16 20 mph 1011.8mb 83f 82f
8:50pm 5.5ft 15s 7s 16 18 mph 1011.2mb 83f 82f
7:50pm 6ft 14s 6s 13 18 mph 1010.6mb 83f 82f
6:50pm 5.5ft 15s 6s 16 18 mph 1010.1mb 83f 82f
5:50pm 5.5ft 15s 6s 16 18 mph 1009.5mb 83f 83f
4:50pm 5.5ft 15s 7s 16 18 mph 1009.1mb 83f 83f
3:50pm 5.5ft 16s 6s 16 20 mph 1009.5mb 83f 82f
2:50pm 5ft 16s 6s 16 18 mph 1009.8mb 83f 82f
1:50pm 5ft 13s 6s 16 18 mph 1010.5mb 83f 82f
12:50pm 5ft 14s 6s 16 20 mph 1011.2mb 83f 82f
11:50am 5.5ft 14s 6s 16 18 mph 1011.9mb 83f 83f
10:50am 5.5ft 15s 7s 16 20 mph 1012mb 83f 82f
9:50am 5.5ft 14s 7s 16 20 mph 1011.9mb 83f 82f
8:50am 5ft 13s 6s 16 18 mph 1011.6mb 83f 82f
7:50am 5ft 14s 6s 18 20 mph 1011.2mb 83f 82f
6:50am 5ft 15s 7s 16 18 mph 1010.6mb 83f 82f
5:50am 5.5ft 15s 7s 13 16 mph 1010.1mb 83f 82f
4:50am 5ft 15s 6s 16 18 mph 1009.6mb 83f 82f
3:50am  -   -   -  16 18 mph 1009.5mb 83f 82f
2:50am 5ft 15s 6s 16 18 mph 1009.7mb 83f 82f
1:50am 5.5ft 15s 7s 13 18 mph 1010.3mb 83f 82f
12:50am 5.5ft 15s 6s 16 20 mph 1010.5mb 83f 82f
Thu 08/27 11:50pm 5ft 14s 7s 16 20 mph 1010.9mb 83f 82f
10:50pm 5ft 15s 6s 16 20 mph 1011.8mb 83f 82f